Temp
20 19 19 19 19 19 18 18 18 18 18 17 17 17 17 17 17 17 16 16 16 16 16 16 16 16 16 16 16 16 15 15 15 15 16 16 16 16 16 16 15 15 15 15 15 15 15 15 15 15 15 15 15 15 15 14 14 14 14 14 14 14 13 13 13 13 13 13 13
20 19 19 19 19 19 18 18 18 18 18 17 17 17 17 17 17 17 17 16 16 16 16 16 16 16 16 16 16 16 16 15 15 16 15 16 16 16 15 15 15 15 15 15 15 15 15 15 15 15 15 15 15 14 14 14 14 14 14 14 13 13 13 13 13 13 13 12 12
19 19 19 19 19 18 18 18 18 18 18 17 17 17 17 17 17 17 17 16 16 16 16 16 16 16 16 16 16 16 16 16 16 16 16 15 15 15 15 15 15 15 15 15 15 15 15 15 15 15 15 15 14 14 14 14 13 13 13 13 13 13 13 13 13 12 12 12 12
19 19 19 19 19 18 18 18 18 18 17 17 17 17 17 17 17 17 17 17 16 16 16 16 16 16 16 16 16 16 16 16 16 16 16 15 15 15 15 15 15 15 15 15 15 15 15 14 15 15 15 14 14 14 14 13 13 13 13 13 13 13 13 13 12 12 12 11 11
19 19 19 19 19 18 18 18 18 17 17 17 17 17 17 17 17 17 17 17 17 16 16 16 16 16 16 16 16 16 16 16 16 16 16 15 15 15 15 15 15 15 15 14 14 14 14 14 14 14 14 14 14 13 13 13 13 13 13 12 12 12 12 12 12 11 11 11 11
19 19 19 19 19 18 18 18 18 17 17 17 17 17 17 17 17 17 17 17 17 17 16 16 16 16 16 16 16 16 16 16 16 16 16 15 15 15 15 15 15 14 14 14 14 14 14 14 14 14 14 14 13 13 13 13 13 13 12 12 12 12 12 11 11 11 11 11 10
19 19 19 19 19 18 18 18 17 17 17 17 17 17 17 17 17 17 17 17 17 17 17 17 16 16 16 16 16 16 16 16 16 16 16 15 15 15 15 15 14 14 14 14 14 14 14 14 14 14 14 13 13 13 12 13 12 12 12 12 12 11 11 11 11 11 10 10 10
19 19 19 19 19 18 18 18 17 17 17 17 17 17 17 17 17 17 17 17 17 17 17 17 17 16 16 16 16 16 16 16 15 15 15 15 15 15 15 14 14 14 14 14 14 14 14 14 14 13 13 13 13 12 12 12 12 12 11 11 11 11 11 10 10 10 10 10 10
19 19 19 19 18 18 18 18 17 17 17 17 17 17 17 17 17 17 17 17 17 17 17 17 16 16 16 16 15 15 15 15 15 15 15 15 15 15 14 14 14 14 14 14 14 14 14 13 13 13 13 12 12 12 12 12 11 11 11 11 11 10 10 10 10 10 10 9 9
19 19 19 19 18 18 18 18 17 17 17 17 17 17 17 17 17 17 17 17 17 17 17 16 16 16 16 15 15 15 15 15 15 15 15 15 14 14 14 14 14 14 13 13 13 13 13 13 13 12 12 12 12 12 11 11 11 11 10 10 10 10 10 10 9 9 9 9 9
19 19 19 19 18 18 18 18 17 17 17 17 17 17 17 17 17 17 17 17 17 16 16 16 16 15 15 15 15 15 15 15 14 14 14 14 14 14 14 14 13 13 13 13 13 13 13 12 12 12 12 11 11 11 11 11 10 10 10 10 10 9 9 9 9 9 8 8 8
19 19 19 19 18 18 18 18 17 17 17 17 17 17 17 17 17 17 17 17 16 16 16 16 15 15 15 15 15 14 14 14 14 14 14 14 14 13 13 13 13 13 13 13 13 12 12 12 12 12 11 11 11 11 10 10 10 10 10 9 9 9 9 9 8 8 8 8 8
19 19 19 19 18 18 18 17 17 17 17 17 17 17 17 17 17 17 17 16 16 16 16 15 15 15 15 15 14 14 14 14 14 14 13 13 13 13 13 13 13 12 12 12 12 12 12 12 12 11 11 11 11 11 10 10 10 10 9 9 9 9 9 8 8 8 8 7 7
19 19 19 18 18 18 18 17 17 17 17 17 17 17 17 17 17 17 16 16 16 16 16 15 15 15 15 15 14 14 14 13 13 13 13 13 13 13 13 12 12 12 12 12 12 12 12 11 11 11 11 11 10 10 10 10 10 9 9 9 9 8 8 8 8 7 7 7 7
19 19 18 18 18 18 17 17 17 17 17 17 17 17 17 17 17 16 16 16 16 16 16 15 15 15 15 15 14 14 13 13 13 13 13 13 13 13 12 12 12 12 12 12 11 11 11 11 11 11 11 11 10 10 10 10 9 9 9 9 8 8 8 7 7 7 7 7 6
19 19 18 18 18 17 17 17 17 17 17 17 17 17 17 17 16 16 16 16 16 16 16 15 15 15 14 14 14 14 13 13 13 13 13 13 12 12 12 12 12 12 12 12 11 11 11 11 11 11 11 10 10 10 10 9 9 9 9 9 8 8 7 7 7 7 7 6 6
19 18 18 18 17 17 17 17 17 17 17 17 17 17 17 16 16 16 16 16 16 16 15 15 15 14 14 14 14 13 13 13 13 13 13 12 12 12 12 12 12 12 12 12 11 11 11 11 11 11 10 10 10 10 9 9 9 9 9 8 8 8 7 7 7 7 6 6 6
18 18 18 17 17 17 17 17 17 17 17 17 17 17 16 16 16 16 16 16 16 15 15 14 14 14 14 14 13 13 13 13 13 13 13 12 12 12 11 11 11 11 11 11 11 11 11 11 11 10 10 10 9 9 9 9 9 9 9 8 8 8 7 7 7 7 6 6 6
18 18 17 17 17 17 17 17 17 17 17 17 17 16 16 16 16 16 16 15 15 14 14 14 14 14 13 13 13 13 13 13 13 13 12 12 12 11 11 11 11 11 11 11 11 11 11 10 10 10 10 9 9 9 9 9 9 9 8 8 8 8 7 7 7 7 6 6 6
18 18 17 17 17 17 17 17 17 17 17 17 16 16 16 15 15 15 15 15 14 14 14 14 14 13 13 13 13 13 13 13 13 12 12 12 11 11 11 11 11 11 11 11 11 11 10 10 10 10 9 9 9 9 8 8 8 8 8 7 7 7 7 7 6 6 6 6 5
18 17 17 17 17 17 17 17 17 17 17 16 16 15 15 15 15 15 15 14 14 14 14 14 13 13 13 13 13 13 12 12 12 12 11 11 11 11 11 11 11 11 10 10 10 10 10 10 10 9 9 9 9 8 8 8 7 7 7 7 7 7 6 6 6 6 6 5 5
18 17 17 17 17 17 17 17 17 17 17 16 16 15 15 15 15 15 14 14 14 14 14 13 13 13 13 12 12 12 12 12 11 11 11 11 11 11 11 11 11 11 10 10 10 10 10 9 9 9 9 9 8 8 8 7 7 6 6 6 6 6 6 6 6 5 5 5 5
17 17 17 17 17 17 17 17 17 17 16 16 15 15 15 15 15 14 14 14 14 13 13 13 13 12 12 12 12 12 12 11 11 11 11 11 11 11 11 11 11 10 10 10 10 9 9 9 9 9 9 8 8 7 7 6 6 6 6 6 6 6 6 5 5 5 5 5 5
17 17 17 17 17 17 17 17 17 16 16 15 15 14 14 14 14 14 14 14 13 13 13 13 12 12 12 12 12 12 11 11 11 10 10 10 10 10 10 10 10 10 10 9 9 9 9 9 9 9 8 8 8 7 6 6 6 6 6 6 6 5 5 5 5 5 5 5 4
17 17 17 17 17 17 17 17 16 16 15 14 14 14 14 14 14 14 13 13 13 13 13 12 12 12 12 12 11 11 11 11 10 10 10 10 10 10 10 10 10 10 10 10 9 9 9 9 9 8 8 8 7 7 6 6 6 5 5 5 5 5 5 5 4 4 4 4 4
17 17 17 17 17 17 17 17 16 15 14 14 14 14 14 13 13 13 13 13 13 12 12 12 12 12 12 11 11 11 11 10 10 10 10 10 10 10 10 10 10 10 10 10 9 9 9 9 8 8 8 8 7 7 6 6 6 5 5 5 5 5 5 4 4 4 4 4 4
17 17 17 17 17 17 17 16 15 14 14 14 14 13 13 13 13 13 12 12 12 12 12 12 12 12 11 11 11 10 10 10 10 10 10 10 10 9 10 10 10 10 9 9 9 9 8 8 8 8 8 8 7 7 7 6 6 5 5 5 5 5 5 4 4 4 4 4 4
17 17 17 17 17 16 16 15 14 14 13 13 13 13 13 13 12 12 12 12 12 12 11 11 11 11 11 10 10 10 10 10 10 10 9 9 9 9 9 10 9 9 9 8 8 8 8 8 7 7 7 7 7 7 7 6 6 5 5 5 5 5 5 5 4 4 4 4 4
17 17 17 17 16 15 15 14 13 13 13 13 13 13 12 12 12 11 11 11 11 11 11 11 11 10 10 10 10 10 10 10 10 9 9 9 9 9 9 9 9 9 8 8 8 8 7 7 7 7 7 7 7 7 7 6 6 5 5 5 5 5 5 4 4 4 4 4 4
17 16 16 16 15 14 14 13 13 13 13 13 12 12 12 11 11 11 11 11 11 11 11 10 10 10 10 10 10 9 9 9 9 10 10 10 9 9 9 9 9 8 8 8 8 7 7 7 7 7 7 7 7 7 6 5 5 4 4 4 4 4 4 4 4 4 4 4 5
16 16 15 14 14 13 13 13 13 12 12 12 12 11 11 11 11 11 11 11 11 10 10 10 10 10 10 10 9 9 9 9 10 10 10 10 10 9 9 9 8 8 8 8 7 7 7 7 7 7 6 6 6 6 5 5 5 4 4 4 4 4 4 4 4 4 4 5 5
15 15 14 13 13 13 12 12 12 12 12 11 11 11 11 11 10 10 10 10 10 10 10 10 10 10 9 9 9 9 9 9 9 10 10 10 10 9 9 8 8 8 7 7 7 7 7 7 7 7 6 6 5 5 5 5 5 5 4 4 4 4 4 4 4 4 4 5 5
14 14 13 13 12 12 12 12 11 11 11 11 11 10 10 10 10 10 10 10 10 10 10 10 9 9 9 9 9 9 9 9 9 9 9 9 9 9 8 8 7 7 7 7 7 7 7 7 7 6 6 5 5 5 5 5 5 5 4 4 4 4 4 4 4 4 4 5 5
13 13 12 12 12 12 11 11 11 11 11 10 10 10 10 10 10 10 10 9 9 9 9 9 9 9 9 9 9 9 9 9 9 9 9 9 9 8 8 7 7 6 6 6 7 7 7 6 6 6 5 5 5 5 5 5 5 5 4 4 4 4 4 4 4 4 4 5 5
12 12 12 11 11 11 11 11 10 10 10 10 10 10 10 10 10 9 9 9 9 9 9 9 9 9 9 9 9 9 9 8 8 8 8 8 8 8 7 6 6 6 6 6 6 6 6 6 6 5 5 5 5 5 5 5 5 4 4 4 4 4 4 4 4 4 4 5 5
12 11 11 11 11 10 10 10 10 10 10 9 9 9 9 9 9 9 9 9 9 9 8 8 8 8 8 8 8 8 8 8 8 8 8 8 8 7 7 6 6 6 6 6 6 6 5 5 5 5 5 5 5 5 5 5 4 4 4 4 4 4 4 4 4 4 4 4 4
11 11 11 10 10 10 10 10 10 10 9 9 9 9 9 9 9 9 9 9 9 8 8 8 8 8 8 8 8 8 8 8 8 7 7 7 7 7 6 6 5 5 6 6 5 5 5 5 5 5 5 5 5 5 5 4 4 4 4 4 4 4 4 4 4 4 4 4 4
11 11 11 10 10 10 10 10 10 9 9 9 9 9 9 9 9 9 9 9 8 8 8 8 8 8 8 8 8 8 7 7 7 7 7 7 7 7 7 6 5 5 5 5 5 5 5 5 5 5 5 5 5 5 5 4 4 4 4 4 4 4 4 4 4 4 4 4 4
11 10 10 10 10 10 10 10 9 9 9 9 9 9 9 9 9 8 8 9 9 8 8 8 8 8 8 8 8 7 7 7 7 7 7 7 7 7 7 6 6 5 5 5 5 5 5 5 5 5 5 5 5 5 5 4 4 4 4 4 4 4 4 4 4 4 4 3 3
10 10 10 10 10 10 10 9 9 9 9 9 9 9 9 9 8 8 8 8 8 8 8 8 8 8 8 8 7 7 7 7 7 7 7 6 6 7 6 6 6 5 5 5 5 5 5 5 5 5 5 5 5 5 5 5 4 4 4 4 4 3 3 3 3 3 3 3 3
10 10 10 10 10 10 9 9 9 9 9 9 9 9 9 9 8 8 8 8 8 8 8 8 7 7 7 7 7 7 7 6 6 6 6 6 6 6 6 6 5 5 5 5 5 5 5 5 5 5 5 5 5 5 5 5 5 4 4 4 4 3 3 3 3 3 3 3 3
Height
740 742 743 745 747 748 750 752 753 754 756 757 758 760 762 763 764 765 767 767 768 769 771 772 773 774 776 777 778 779 780 781 782 784 785 786 787 788 789 790 791 792 793 794 796 797 798 799 800 801 802 802 803 804 805 806 806 807 807 807 807 808 808 808 809 810 810 811 811
738 740 742 744 746 747 749 751 752 753 755 756 757 759 761 762 763 764 766 767 767 769 770 771 772 773 775 776 777 778 779 781 782 783 784 785 786 787 788 789 791 792 793 794 795 796 797 798 799 800 801 801 802 803 803 804 805 805 806 806 806 807 807 807 808 808 809 810 810
737 739 741 742 744 746 748 749 751 752 754 755 757 758 760 761 762 763 765 766 767 768 769 770 771 772 774 775 776 777 778 780 781 782 783 784 785 787 788 789 790 791 792 794 795 796 797 797 798 799 799 800 801 802 802 802 803 804 805 805 805 806 806 807 807 807 808 808 809
735 737 739 741 742 744 746 747 749 751 752 754 756 758 759 761 762 763 764 765 766 767 768 769 770 772 773 774 775 777 778 779 780 781 782 783 785 786 787 788 789 791 792 793 794 795 795 796 797 797 798 799 800 800 801 802 802 803 804 804 805 805 806 806 806 807 807 807 807
734 736 737 739 741 743 745 746 748 750 752 753 755 757 758 760 761 762 763 764 765 766 767 768 770 771 772 773 774 776 777 778 779 781 782 783 784 785 787 787 789 790 791 792 793 793 794 795 796 797 797 798 799 800 800 801 802 802 803 803 804 804 805 805 806 806 806 807 807
732 734 737 738 740 742 744 746 747 749 751 752 754 756 757 759 760 761 762 763 764 766 767 768 769 770 771 772 774 775 776 778 779 780 781 782 783 785 786 787 788 789 790 791 792 792 793 794 795 796 797 797 798 799 800 800 801 802 802 803 803 803 804 804 805 805 805 805 806
731 733 735 737 739 741 743 745 746 748 750 752 753 755 756 758 759 760 761 762 764 765 766 767 768 769 771 772 773 775 776 777 778 779 780 782 782 783 785 786 787 788 789 790 791 792 792 793 794 795 796 797 797 798 799 799 800 801 802 802 802 803 803 803 804 804 804 804 805
730 732 734 737 738 740 742 743 745 747 749 751 752 754 755 757 758 759 761 762 763 764 766 767 767 768 770 771 772 774 775 777 777 778 780 781 782 783 784 785 787 788 789 789 790 791 792 793 794 795 795 796 797 798 798 799 800 800 801 801 802 802 802 803 803 803 803 803 804
730 732 734 736 737 739 741 743 744 746 748 750 752 753 755 756 757 759 760 761 762 764 765 766 767 768 769 771 772 773 775 776 777 778 779 780 781 782 783 785 786 787 788 789 790 790 791 792 793 794 795 796 796 797 797 798 799 800 800 801 801 802 802 802 802 802 802 802 802
728 731 733 735 737 738 740 742 744 746 747 749 751 753 754 756 757 758 759 761 762 763 764 765 766 767 769 770 772 773 774 775 776 777 778 780 781 782 783 784 785 786 787 788 789 790 791 792 792 793 794 795 795 796 797 798 798 799 800 800 800 801 801 801 802 802 802 802 802
727 729 732 733 736 737 739 741 743 745 747 749 751 752 754 755 757 758 759 760 761 762 763 764 766 767 768 770 771 772 773 775 776 777 778 779 781 782 783 784 785 786 787 787 788 789 790 791 792 792 793 794 795 796 797 797 798 799 799 799 800 800 800 800 801 801 801 801 801
726 728 731 732 735 737 738 741 743 745 747 748 750 752 753 755 756 757 758 759 760 762 763 764 766 767 768 770 771 772 773 774 775 777 778 779 780 782 782 783 784 785 786 787 787 788 789 790 791 792 792 793 794 795 796 797 797 798 798 799 799 799 799 799 800 800 800 800 800
726 728 730 732 734 736 738 740 742 744 746 747 749 751 752 754 755 757 757 758 760 762 763 764 766 767 768 769 771 772 773 774 775 776 778 779 780 781 782 783 784 785 786 787 787 788 788 789 790 791 792 793 794 795 796 796 797 797 798 798 798 798 798 798 799 799 799 799 799
725 727 729 731 733 735 737 739 742 743 745 747 749 750 752 753 755 756 757 758 760 761 763 764 766 767 768 769 770 771 772 773 775 776 777 779 780 781 782 783 784 785 786 786 787 787 788 789 790 791 792 792 793 794 795 796 796 797 797 797 797 798 798 798 798 798 798 798 798
724 726 728 730 732 735 737 739 741 743 745 747 748 750 751 753 754 755 756 758 760 761 762 764 766 767 768 769 770 771 772 773 774 776 777 778 780 781 782 783 784 785 785 786 787 787 788 789 790 791 791 792 793 794 794 795 796 796 797 797 797 797 797 797 797 797 797 797 798
724 726 728 730 732 734 736 738 740 742 744 746 747 749 750 752 753 754 756 758 759 761 762 764 765 766 767 769 770 771 772 773 774 775 777 778 779 781 782 782 783 784 785 786 786 787 788 789 790 790 791 792 793 793 794 795 795 796 796 796 796 797 797 797 797 797 797 797 797
723 725 727 729 732 734 736 738 740 742 743 745 747 748 749 751 752 754 756 757 759 761 762 763 764 766 767 768 769 770 771 772 774 775 777 778 779 780 781 782 783 784 785 785 786 787 788 788 789 790 791 792 792 793 794 794 795 795 795 796 796 796 796 796 796 796 796 796 797
722 724 727 729 731 733 735 737 739 741 743 745 746 747 749 750 752 754 756 757 759 760 761 762 764 765 766 768 769 770 771 772 774 775 777 778 779 780 781 782 782 783 784 785 786 787 787 788 789 790 791 791 792 792 793 794 794 794 795 795 795 795 795 795 796 796 796 796 796
722 724 726 728 731 733 735 737 739 741 742 744 745 747 748 750 752 753 755 757 758 759 761 762 763 765 766 767 768 769 771 772 774 775 777 778 779 780 781 782 782 783 784 785 786 787 787 788 789 790 790 791 792 792 792 793 793 794 794 794 794 795 795 795 795 795 796 796 796
721 723 726 728 730 732 735 737 738 740 742 743 745 746 748 750 752 753 755 757 758 759 760 762 763 765 766 767 768 769 771 772 774 776 777 778 779 780 781 781 782 783 784 785 785 786 787 788 789 789 790 791 791 792 792 792 793 793 793 794 794 794 794 795 795 795 795 795 796
721 723 726 728 730 732 734 736 738 740 741 743 744 746 747 749 751 753 755 756 758 759 761 762 763 764 766 767 768 769 771 772 775 776 777 778 779 780 780 781 782 783 783 784 785 786 787 788 789 789 790 790 791 791 792 792 792 792 793 793 793 794 794 794 795 795 795 795 795
721 723 726 728 730 732 734 736 738 739 741 743 744 746 747 749 751 753 755 756 757 759 761 762 763 764 766 767 768 769 771 773 775 776 777 778 779 780 781 781 782 783 784 785 786 786 787 788 788 789 789 790 790 791 791 792 792 792 792 793 793 793 794 794 794 795 795 795 795
721 723 726 728 730 732 734 736 737 739 741 742 744 746 747 749 751 753 755 756 758 759 761 762 764 765 766 767 768 769 771 773 775 776 777 777 779 780 781 782 782 783 784 785 786 786 787 787 788 789 789 790 790 791 791 792 792 792 792 792 793 793 794 794 794 794 794 794 794
721 723 726 728 730 732 734 736 737 739 740 742 744 745 747 749 751 753 755 757 758 760 761 763 764 765 766 767 768 770 771 773 774 776 777 777 778 780 781 782 782 783 784 785 786 786 787 787 788 788 789 790 790 791 791 791 791 792 792 792 792 793 793 793 794 794 794 794 794
721 723 726 728 730 732 733 735 737 738 740 742 743 745 747 749 752 753 755 757 758 759 761 762 763 764 766 767 769 770 772 773 774 775 776 777 779 780 781 782 782 783 784 785 786 786 787 787 788 788 789 790 790 790 791 791 792 792 792 792 793 793 793 793 793 794 794 794 794
721 723 725 727 730 732 733 735 736 738 740 742 743 745 747 750 752 753 755 756 757 758 760 761 763 764 766 768 769 771 772 773 774 775 776 777 779 780 781 782 782 783 784 785 786 786 787 788 788 789 789 789 789 790 791 791 792 792 792 792 793 793 793 793 794 794 794 794 794
721 723 725 727 729 731 733 734 736 737 739 741 743 746 748 750 752 753 754 755 756 758 760 762 763 765 767 768 770 771 772 774 775 776 777 777 778 780 781 781 782 783 784 785 786 787 787 788 788 789 789 789 789 790 791 791 792 792 792 793 793 793 794 794 794 794 794 794 795
721 723 725 727 729 731 732 734 736 737 739 741 743 746 748 750 751 752 753 754 756 758 760 762 764 765 767 768 770 771 772 773 775 776 777 777 778 779 780 781 782 783 784 785 786 787 787 788 788 788 789 789 790 790 791 791 792 792 792 793 793 793 794 794 794 794 795 795 795
720 722 725 727 728 730 732 734 736 737 739 742 744 746 748 750 751 752 753 755 757 758 761 762 764 765 767 768 769 771 772 773 774 775 777 777 779 780 781 782 782 783 784 785 786 787 787 788 788 788 789 789 790 790 791 791 792 792 792 792 793 793 794 794 794 794 795 795 795
720 722 724 726 728 730 732 734 736 738 740 742 744 746 748 749 751 752 754 755 757 759 761 762 763 765 767 768 769 771 772 773 774 776 777 778 779 780 781 782 783 784 784 785 786 787 787 788 788 789 789 789 790 790 791 791 791 792 792 792 793 793 793 794 794 795 795 795 796
720 722 724 726 728 730 732 734 736 738 740 742 744 746 748 750 751 753 754 756 757 759 761 762 763 765 767 768 769 771 772 773 775 776 777 778 779 780 781 782 783 784 785 785 786 787 787 788 789 789 789 790 790 791 791 791 792 792 792 792 793 793 794 794 795 795 796 796 796
720 722 723 726 728 730 732 734 737 738 740 742 744 746 748 750 751 753 754 756 757 759 761 762 763 765 767 768 770 771 772 773 775 776 777 778 779 780 781 782 783 784 785 786 787 787 788 789 789 790 790 791 791 791 792 792 792 792 792 793 793 794 794 795 795 796 796 797 797
719 722 724 726 728 730 732 735 737 739 741 743 745 747 748 750 752 753 755 756 758 759 761 762 764 765 767 768 770 771 772 773 775 776 777 778 779 780 781 782 784 785 786 786 787 788 788 789 789 790 791 791 792 792 792 792 792 793 793 793 794 794 795 795 796 796 797 797 797
719 722 724 726 728 731 733 735 737 739 741 743 745 747 748 750 752 753 755 757 758 760 761 763 764 765 767 768 769 771 772 773 775 776 777 778 779 780 782 783 784 785 786 787 788 788 789 789 790 790 791 791 792 792 792 792 793 793 793 794 794 795 795 796 796 797 797 797 798
719 722 724 726 728 731 733 735 737 739 742 744 746 747 749 750 752 753 755 757 759 760 762 763 765 766 767 769 770 771 772 773 775 776 777 778 780 781 782 783 785 786 787 787 788 789 789 790 790 791 791 792 792 792 792 793 793 794 794 794 795 795 796 796 797 797 798 798 798
719 722 724 726 729 731 733 736 738 740 742 744 746 748 749 751 752 754 756 757 758 760 762 764 765 767 768 769 770 771 772 773 775 776 778 779 780 781 782 784 785 786 787 788 788 789 790 790 791 792 792 792 792 793 793 793 794 794 795 795 795 796 796 797 797 798 798 799 799
720 722 724 727 729 732 734 736 738 741 743 745 747 748 750 751 753 755 756 757 758 760 762 764 765 767 768 769 771 772 773 774 775 777 778 780 781 782 783 784 785 787 787 788 789 789 790 791 792 792 792 792 793 793 793 794 794 795 795 796 796 797 797 797 798 799 799 799 799
721 722 724 727 730 732 734 737 739 741 743 745 747 748 750 751 753 755 756 757 758 760 762 764 766 767 768 770 771 772 774 775 776 777 779 780 782 782 783 784 786 787 788 789 789 790 791 792 792 792 793 793 793 794 794 794 795 795 796 796 797 797 798 798 799 799 800 800 800
721 723 725 727 730 732 735 737 739 741 742 744 747 748 750 752 753 755 757 757 758 760 762 764 766 767 769 770 771 773 775 776 777 778 779 781 782 783 784 785 786 787 788 789 790 791 792 792 793 793 794 794 794 794 795 795 795 796 797 797 797 798 799 799 800 800 800 801 801
722 724 726 728 730 732 735 737 739 741 742 744 746 748 750 752 753 755 757 758 759 760 762 764 766 768 769 770 772 773 775 777 778 779 780 782 783 784 784 785 787 788 789 790 791 792 792 793 793 794 794 794 795 795 795 796 796 797 797 798 798 799 799 800 801 801 801 802 802
723 725 727 729 731 733 735 737 739 741 743 744 746 748 750 752 753 755 756 758 760 761 762 764 766 768 769 771 772 774 776 777 779 780 781 782 783 784 785 786 787 788 790 791 792 792 793 793 794 794 795 795 795 796 796 796 797 797 798 799 799 800 800 801 801 802 802 802 802
Wind_Speed
27 27 26 26 26 26 24 24 24 24 24 24 24 24 24 23 23 23 23 23 22 22 22 22 22 22 22 22 23 23 24 24 24 24 25 25 25 25 24 24 23 23 23 22 22 21 21 21 20 19 19 18 18 18 17 17 17 18 18 18 18 18 18 18 19 19 20 20 21
28 27 26 26 26 25 24 23 23 24 24 24 24 24 24 23 23 23 23 23 22 22 21 21 21 21 22 22 23 23 24 24 24 24 24 25 25 24 24 23 23 22 21 20 20 19 19 20 20 20 19 19 19 18 18 18 18 18 18 18 18 18 17 17 17 18 18 19 19
28 27 26 26 26 25 24 24 24 24 24 24 24 24 24 23 23 22 22 22 22 21 21 21 21 21 21 22 23 23 24 24 23 23 23 24 24 23 23 22 21 21 20 19 18 18 19 19 20 20 20 20 20 20 19 19 19 18 18 18 17 17 16 16 17 17 18 19 20
28 27 27 26 26 26 25 24 24 24 24 24 23 23 23 23 22 21 21 21 21 21 20 20 20 20 21 21 22 23 23 23 23 22 22 22 22 22 21 21 20 19 19 18 18 18 19 19 20 21 21 21 20 20 19 19 19 18 17 16 16 16 16 17 18 19 20 21 21
28 28 27 27 27 27 26 25 25 25 24 24 23 23 22 22 21 21 21 21 20 20 20 19 19 19 20 21 22 23 23 23 22 22 21 21 21 20 20 20 19 19 19 18 18 18 19 19 20 20 20 20 19 19 19 19 18 17 16 16 16 16 18 19 20 21 21 21 21
28 28 27 27 27 26 25 25 25 25 24 23 23 23 22 22 21 20 20 20 20 20 19 18 18 18 19 21 21 22 22 21 21 21 20 20 20 20 20 19 19 19 19 19 19 19 19 19 20 20 20 19 19 19 19 19 19 18 18 18 19 20 21 20 21 21 20 20 19
28 28 27 27 27 26 25 25 25 25 24 23 23 23 23 22 21 21 20 20 20 19 19 18 18 18 20 21 21 21 20 20 20 20 20 19 19 19 19 19 19 20 20 19 19 19 19 19 19 19 19 20 19 19 19 20 20 20 20 20 21 21 20 19 19 19 19 18 18
28 28 27 27 27 26 26 25 25 25 24 23 23 23 23 22 21 21 20 20 19 19 19 18 18 19 20 21 21 20 20 19 19 19 19 19 19 19 19 19 19 19 19 19 18 18 18 18 18 18 18 18 18 18 18 19 18 18 18 18 18 18 18 18 18 18 18 18 18
27 27 27 27 27 26 26 26 26 25 24 23 23 23 23 22 22 21 20 19 19 19 19 19 19 19 20 21 21 20 20 19 19 19 19 19 19 19 19 19 18 18 18 18 18 17 17 17 17 16 16 16 15 15 15 15 15 15 16 16 16 16 17 17 18 18 17 17 17
28 27 27 27 27 26 26 26 26 25 25 24 23 23 23 22 22 21 20 20 20 20 20 19 19 19 20 21 21 20 20 20 20 19 19 19 19 19 18 18 17 17 17 17 17 17 16 15 15 14 14 13 13 13 13 13 14 14 14 15 15 16 16 16 16 16 15 15 15
28 28 28 28 27 27 26 26 26 25 24 24 23 23 23 22 22 21 20 20 20 20 20 19 19 19 19 20 20 20 20 20 20 20 19 19 19 18 17 17 17 17 17 17 16 16 15 14 14 13 12 12 12 12 12 13 13 13 14 14 13 13 14 13 13 13 12 12 12
28 28 28 28 28 27 27 26 26 25 24 24 24 23 23 22 22 21 20 20 21 21 20 19 19 18 19 19 19 19 20 20 20 20 20 19 18 18 17 17 17 17 16 16 15 14 13 13 12 12 11 11 11 11 11 11 11 11 11 11 10 10 11 11 10 10 10 10 11
28 28 28 28 28 28 27 27 25 25 24 24 23 23 23 22 22 21 21 21 21 21 20 19 18 18 19 19 19 19 19 19 20 20 20 19 19 18 18 17 17 16 15 14 13 12 10 10 9 9 9 9 9 9 9 9 9 8 8 8 8 8 8 9 9 9 9 9 9
28 28 28 28 28 28 27 26 25 24 24 24 23 23 22 22 21 21 21 21 21 20 20 19 19 18 19 19 19 19 19 19 19 18 18 18 18 18 18 17 16 15 14 12 10 9 7 7 6 7 7 7 7 7 7 6 6 5 5 5 5 6 6 7 8 9 9 9 9
28 28 28 28 28 28 27 26 24 23 23 23 23 22 22 22 22 21 21 21 20 19 19 19 19 19 19 20 20 20 20 19 18 17 16 16 17 17 16 16 15 13 11 10 8 7 6 6 6 6 6 6 6 6 5 5 5 4 4 4 4 4 5 6 8 8 9 9 9
28 28 29 29 28 27 26 25 23 23 23 23 23 22 22 22 22 22 21 20 20 19 20 20 20 21 21 21 21 21 20 19 17 16 15 16 16 16 15 14 13 12 10 9 8 7 7 7 7 6 6 6 6 6 6 6 6 5 5 5 5 5 5 6 7 8 8 9 9
28 29 29 29 28 27 26 25 23 23 23 23 23 22 23 23 23 22 21 21 20 20 20 21 22 22 22 21 21 20 19 18 16 15 15 16 16 16 15 14 13 12 11 10 9 9 8 8 7 7 6 6 6 6 6 6 6 6 5 5 5 6 6 6 7 8 8 8 9
29 29 29 29 28 27 26 24 23 23 23 23 23 23 23 24 23 22 22 21 21 21 22 22 22 22 22 21 20 18 17 16 15 15 15 16 16 16 15 14 13 12 11 10 10 10 9 9 8 7 7 7 7 7 7 6 6 5 5 5 6 6 6 6 7 7 8 8 8
29 29 29 28 28 27 26 25 24 23 23 23 23 23 24 24 23 23 22 22 22 22 23 23 22 21 21 20 18 17 16 15 14 15 15 16 17 17 16 16 14 13 12 11 10 10 9 9 8 7 7 7 8 7 7 6 6 5 5 5 6 6 6 6 6 6 6 7 7
29 29 29 28 27 26 25 25 24 24 23 23 23 24 24 24 24 24 23 22 22 22 23 23 22 21 20 18 17 16 15 14 14 15 16 17 17 17 17 16 15 14 12 11 10 9 9 8 8 8 7 7 7 8 7 7 7 7 6 6 5 5 5 5 4 4 5 5 6
28 28 28 28 27 26 25 25 24 24 24 23 24 24 25 25 25 24 23 23 22 22 22 22 22 21 19 18 18 17 16 16 16 16 16 17 17 17 16 16 15 14 13 12 11 9 9 8 8 8 8 7 7 7 7 7 7 7 6 6 5 4 3 3 2 3 3 4 5
28 28 28 27 27 26 25 25 25 24 24 24 24 25 26 26 25 25 24 23 22 21 21 20 20 20 20 19 19 19 19 18 18 17 17 17 17 16 15 14 13 13 12 12 11 10 9 9 8 8 8 7 7 6 5 5 5 5 5 4 3 2 1 1 1 2 3 4 4
28 28 27 27 26 26 25 25 25 25 25 24 25 26 26 26 26 25 24 23 21 20 20 19 19 20 20 20 21 21 21 20 19 18 18 17 16 15 14 13 12 12 12 12 12 11 11 10 10 9 8 7 6 5 5 4 4 4 3 3 2 1 2 2 3 3 4 4 4
28 27 27 27 26 26 25 25 25 25 25 25 26 26 27 27 26 25 24 23 22 21 20 20 21 21 21 22 22 22 22 21 20 19 18 17 15 14 14 13 13 13 12 12 12 12 12 12 11 10 8 7 6 6 6 6 5 4 2 1 1 2 3 3 4 4 4 4 4
28 28 27 27 26 26 25 25 25 26 26 26 27 27 27 27 26 26 25 24 23 23 23 23 23 22 22 22 22 21 21 21 20 19 18 16 15 14 13 13 13 13 13 13 13 12 12 11 10 9 8 7 7 7 7 6 5 3 1 1 2 2 2 3 3 4 4 4 4
28 28 27 27 26 26 25 25 26 26 27 27 27 28 27 27 26 26 25 25 25 24 24 24 24 23 22 22 22 21 20 20 19 19 18 16 15 14 13 13 13 13 13 13 12 12 11 10 9 9 9 8 8 7 7 6 5 5 4 3 2 3 3 3 2 2 2 2 2
28 28 27 27 26 26 25 26 27 27 28 28 28 28 28 27 27 26 26 26 26 26 25 25 24 24 23 22 22 21 21 20 19 18 18 17 16 14 13 13 13 13 13 12 12 11 11 11 10 10 10 9 8 6 6 6 6 6 5 4 3 3 4 4 3 2 1 1 1
28 28 27 27 26 26 26 27 28 28 29 29 29 28 28 27 27 27 27 27 27 27 26 25 24 24 23 23 22 22 21 20 19 18 18 17 16 15 14 13 13 13 13 12 12 12 12 11 11 10 10 9 7 5 4 4 4 4 3 2 2 2 3 4 3 3 2 1 1
28 28 27 27 26 27 27 28 29 29 29 29 29 28 28 27 27 27 27 28 27 27 26 25 24 23 23 23 23 23 22 21 19 18 17 16 15 14 14 14 14 14 13 13 13 12 12 12 11 10 8 6 4 4 4 4 4 3 3 3 2 2 2 2 3 3 2 2 2
28 28 28 28 28 28 28 29 29 29 29 29 28 28 27 27 27 27 27 27 27 26 25 24 24 23 23 24 23 23 22 20 19 17 16 15 15 14 14 14 14 14 14 13 13 12 12 12 10 8 5 4 5 7 7 7 6 6 5 4 4 4 3 2 2 3 4 4 4
28 28 29 29 29 29 29 29 29 29 29 28 28 28 27 27 27 27 27 27 27 26 25 24 24 24 24 24 23 23 21 19 17 16 15 15 15 15 15 14 14 14 14 13 12 12 11 10 9 7 7 8 9 9 9 8 7 6 5 5 5 5 5 6 6 7 6 5 5
29 30 30 30 29 29 28 28 28 28 28 28 28 27 27 27 27 26 27 27 27 26 25 25 25 25 24 24 23 22 21 19 17 16 16 16 16 16 15 15 14 14 13 12 12 11 10 9 9 9 11 11 10 9 8 8 7 6 6 6 6 7 7 8 8 8 7 6 5
31 31 30 30 29 28 28 28 28 29 28 28 27 27 27 27 27 26 26 26 26 26 25 25 25 25 25 24 23 22 21 19 18 17 16 16 16 16 16 15 15 13 12 11 11 10 10 10 11 11 12 11 10 9 8 7 6 6 6 7 8 8 8 8 8 7 6 6 6
31 31 30 30 29 28 28 28 29 29 28 28 27 27 27 27 27 26 26 26 26 26 26 26 26 26 25 24 24 23 21 20 18 17 17 17 17 17 17 16 15 13 11 10 10 10 11 12 12 12 12 11 9 8 7 6 6 6 7 8 8 7 7 8 8 7 7 7 8
31 31 30 29 29 29 29 29 29 29 29 28 28 27 27 27 27 27 26 26 26 26 26 26 25 25 25 24 23 22 22 21 19 18 17 17 18 18 18 17 15 13 11 10 10 10 11 12 12 12 11 9 7 6 6 7 7 8 8 8 7 6 6 6 7 7 8 8 9
31 31 30 29 29 29 28 28 28 29 28 28 28 27 27 27 27 27 27 27 27 27 26 26 25 25 24 23 22 22 21 21 20 19 18 17 18 18 18 17 16 13 11 10 9 9 10 11 12 11 10 8 7 7 8 9 10 10 9 8 7 7 6 6 6 7 8 9 10
31 31 31 30 29 28 28 28 28 28 28 27 27 27 27 27 27 27 28 28 28 28 27 26 25 24 24 23 22 21 20 19 19 19 18 17 17 18 18 18 16 14 13 11 10 10 10 11 12 11 9 8 9 10 11 12 11 11 10 10 10 10 9 8 8 8 8 9 10
30 31 31 30 29 28 28 28 28 28 28 27 27 28 28 28 27 27 27 28 29 28 27 26 25 24 24 23 22 21 19 18 18 17 17 16 16 17 17 18 16 15 13 12 11 11 12 12 12 11 10 10 11 12 13 12 12 12 12 13 13 13 12 11 10 9 9 9 9
30 30 31 30 30 29 28 28 28 29 29 29 28 28 28 28 27 26 26 27 28 29 28 27 26 25 24 24 23 22 20 17 16 16 16 16 15 15 16 17 16 15 13 12 12 12 13 13 12 11 10 11 12 13 13 13 13 14 14 14 15 14 14 13 12 11 10 10 9
30 30 30 30 29 29 28 28 28 29 30 30 29 29 28 27 27 27 27 27 28 28 28 28 27 26 25 25 24 23 21 19 16 15 15 15 14 14 15 16 15 14 13 12 13 14 14 13 12 12 11 12 13 13 13 13 14 14 14 14 14 14 14 13 13 12 12 11 11
29 29 29 29 29 29 29 29 29 29 30 30 30 29 28 28 28 28 28 28 28 28 28 28 28 27 26 26 25 24 23 20 18 16 15 15 14 14 15 15 15 15 14 14 14 14 14 14 13 12 12 12 12 12 13 13 14 14 14 14 13 13 13 13 13 13 13 13 13
Wind_Direction
186 186 185 184 183 183 182 181 181 181 181 181 181 181 182 182 183 185 186 186 187 187 189 191 193 194 196 198 199 199 199 199 201 202 202 203 202 202 202 203 203 203 204 205 207 207 207 206 206 206 206 205 206 208 211 216 220 222 223 224 226 227 229 230 231 231 231 232 234
185 185 184 183 183 183 183 182 181 181 181 181 181 181 181 182 183 184 184 185 187 187 189 190 192 194 195 197 199 199 199 199 200 201 202 202 202 202 202 202 202 203 203 204 205 206 206 205 205 205 205 205 206 207 209 212 215 218 220 220 220 220 222 223 225 227 229 232 234
184 184 183 183 183 183 182 182 181 181 180 180 180 180 181 182 183 183 184 185 186 187 188 189 192 194 195 196 197 198 199 198 199 200 200 200 200 200 201 201 201 202 202 202 202 202 202 202 203 204 205 206 207 207 207 209 211 212 212 212 213 214 216 220 224 229 234 238 242
183 183 183 183 183 183 182 182 180 179 178 178 179 179 180 182 182 183 184 184 185 186 187 188 190 193 195 195 196 197 197 197 198 198 198 198 198 198 199 200 199 198 197 196 195 195 195 197 200 203 205 206 206 205 206 207 207 206 207 209 213 218 224 231 237 242 246 248 252
182 183 183 183 183 183 182 181 179 178 177 177 177 179 180 181 182 183 183 183 184 185 186 187 189 192 194 194 194 194 195 195 196 196 196 196 196 196 196 196 194 192 190 190 190 191 192 194 197 200 203 204 205 205 207 208 208 209 213 221 230 238 244 249 252 253 254 255 259
182 182 183 183 183 182 181 180 178 176 176 176 177 178 179 181 182 182 182 181 183 184 185 186 187 190 191 191 191 190 191 192 193 193 193 191 191 191 190 189 188 187 187 188 189 191 193 196 198 202 205 208 210 212 215 217 220 224 232 241 248 253 256 257 258 258 258 260 262
181 181 181 182 181 180 179 178 177 176 175 176 177 178 179 180 181 181 181 181 181 181 182 183 185 186 186 186 185 184 185 186 188 188 186 184 182 181 182 184 184 185 187 188 190 194 199 203 206 210 215 219 221 225 229 232 236 240 245 250 253 256 258 258 259 260 261 263 264
180 180 180 180 179 178 177 176 175 174 175 176 177 178 179 179 180 180 180 179 179 180 181 181 181 181 180 180 178 178 179 179 180 179 179 178 177 178 179 181 182 184 186 189 193 200 207 214 218 222 226 229 231 235 239 244 246 248 249 250 252 254 256 256 258 260 261 263 264
179 179 179 178 178 177 175 174 174 174 174 175 177 178 178 178 178 178 177 177 177 178 177 177 177 176 176 176 175 175 175 175 174 174 175 176 177 178 180 181 181 184 188 194 200 209 216 222 226 229 231 234 236 239 243 246 247 246 247 248 250 252 255 257 258 260 261 263 264
177 177 177 177 176 175 174 173 173 173 173 174 176 177 177 177 176 176 176 175 174 173 171 171 172 173 173 173 174 174 175 176 174 174 175 178 179 180 180 182 184 187 192 199 206 213 218 222 223 225 229 234 236 238 240 242 242 243 245 249 252 254 256 259 261 263 266 269 271
176 176 175 175 175 173 172 171 171 172 172 173 174 175 176 175 175 175 174 173 169 167 166 167 169 169 170 171 172 175 177 178 177 176 176 178 180 180 181 184 189 193 197 201 205 209 212 214 216 219 224 230 234 236 238 240 241 243 246 250 253 256 259 263 267 271 276 280 283
174 174 174 173 172 171 169 169 169 170 171 172 173 174 174 174 174 174 172 169 166 165 165 165 165 165 166 167 170 173 176 177 177 177 177 177 178 179 181 185 190 194 196 198 200 202 204 207 211 216 221 226 232 236 238 240 242 245 248 251 254 258 263 268 273 279 282 285 287
173 172 171 170 169 168 167 167 168 169 170 171 172 173 173 173 174 172 169 166 165 165 165 164 164 163 163 164 166 169 171 173 174 175 175 176 178 179 180 183 187 190 192 194 197 199 200 202 206 212 217 221 226 231 235 238 241 244 247 251 254 260 267 273 276 278 279 279 281
170 169 168 167 166 165 165 165 166 168 169 170 171 172 172 172 172 169 165 164 164 165 165 165 163 162 162 161 161 162 163 165 167 169 171 175 178 180 181 182 184 187 190 193 197 196 193 191 194 199 205 210 215 219 223 226 230 234 239 243 248 256 265 272 273 274 276 279 283
167 166 165 164 163 163 163 164 165 166 168 169 170 171 171 169 167 164 161 161 161 163 164 163 162 161 159 157 156 156 157 158 159 161 166 171 175 178 180 181 183 186 189 191 192 188 181 177 177 180 186 192 197 200 200 200 204 211 219 228 237 247 259 267 270 274 279 286 292
164 163 162 162 162 162 162 163 164 166 167 169 170 169 167 163 161 159 157 157 158 159 160 160 157 155 153 152 152 152 153 154 155 157 161 165 168 172 174 175 177 180 182 182 182 179 174 169 168 169 172 175 178 180 184 188 196 206 215 225 233 240 249 259 267 274 282 288 294
161 161 160 161 161 161 162 163 164 165 167 168 168 166 162 158 156 155 155 155 155 155 153 152 151 150 150 150 151 152 152 153 155 156 158 160 162 165 167 168 170 172 174 175 175 174 172 168 166 165 165 167 171 178 186 193 200 208 218 229 238 244 248 254 263 271 279 285 290
159 159 160 160 161 161 162 162 163 164 166 166 164 160 157 155 153 152 153 153 153 150 147 145 147 148 150 151 153 154 155 155 156 158 160 159 159 159 160 162 165 167 169 170 171 171 170 168 166 163 164 170 178 186 193 199 205 211 221 230 239 244 248 252 259 268 276 281 286
159 159 159 160 160 161 161 161 162 163 164 163 159 156 154 153 152 151 151 151 151 149 146 145 147 149 151 152 153 154 154 154 157 160 160 159 157 155 155 157 160 163 165 166 167 168 168 166 163 164 171 181 189 193 194 196 202 207 213 220 228 235 241 247 255 264 274 281 286
158 159 159 160 160 160 160 160 161 162 161 158 155 152 151 151 151 150 149 149 150 151 151 150 150 150 151 151 150 148 146 148 153 156 156 155 153 153 154 156 159 162 164 165 166 167 166 164 164 169 178 189 195 195 191 191 196 202 206 209 216 223 231 238 248 260 272 281 286
159 159 159 159 159 159 159 160 160 159 158 155 152 150 149 150 150 149 148 148 150 152 154 154 153 152 150 147 143 139 138 140 145 147 148 150 152 154 157 160 161 163 165 166 166 167 167 167 170 175 182 189 193 192 190 190 199 208 212 209 211 214 221 232 246 266 281 290 292
159 159 159 159 158 158 159 159 158 157 155 153 150 148 148 150 150 149 148 148 150 152 153 154 152 149 145 141 137 134 135 137 141 143 145 148 152 155 158 161 163 164 165 165 167 168 171 174 178 183 187 188 187 184 184 192 207 220 225 224 222 221 231 273 304 312 311 308 308
158 158 158 158 158 158 158 158 156 154 152 151 148 147 147 149 149 148 146 146 146 147 147 147 145 142 139 137 136 136 137 139 141 142 145 149 151 154 156 157 159 161 163 166 168 171 173 176 183 190 193 188 177 166 164 177 202 221 235 250 272 312 341 346 347 343 338 335 335
157 157 157 157 158 158 157 156 153 151 149 147 145 146 147 147 146 145 143 142 140 140 139 138 138 137 137 138 139 140 141 141 141 142 144 148 151 153 153 155 158 161 165 169 174 177 179 181 184 188 189 185 176 170 171 179 197 215 236 293 352 1 1 360 1 1 0 1 4
156 156 156 157 157 157 156 154 150 148 147 145 144 144 145 144 143 142 140 137 135 135 135 135 136 138 139 140 142 143 143 142 141 141 143 146 149 151 153 157 163 169 172 175 179 182 183 183 182 181 179 180 183 183 183 186 192 190 162 87 54 48 41 35 25 18 16 18 20
155 155 155 156 156 156 154 151 147 145 143 141 141 142 142 142 141 139 137 134 133 134 135 136 137 139 140 141 142 141 141 141 141 141 142 143 145 149 155 161 168 174 177 176 178 178 177 175 174 174 177 183 187 186 180 175 165 151 138 132 111 92 84 78 60 41 34 39 48
154 154 154 155 155 153 150 146 142 140 139 138 139 139 139 139 139 137 135 133 134 135 136 137 138 139 139 139 138 137 137 137 138 140 141 142 145 151 158 164 169 172 173 171 171 170 168 166 167 173 181 187 187 183 175 168 164 158 153 150 140 122 112 107 99 90 90 98 112
152 153 153 153 152 149 144 140 137 136 136 137 137 137 138 138 137 135 134 134 135 136 136 136 136 137 136 135 134 135 136 137 139 140 143 147 151 156 161 163 164 164 164 164 163 162 161 160 164 172 180 184 180 171 163 160 160 160 153 147 138 129 131 135 135 133 131 136 128
151 151 151 149 145 141 138 136 135 135 135 136 136 136 137 136 136 135 135 136 137 136 135 135 135 135 134 133 134 136 138 140 143 146 150 153 157 159 160 159 158 158 159 160 160 159 158 158 161 167 174 174 151 129 121 117 110 97 87 83 76 75 94 139 157 151 135 102 77
149 148 145 142 138 135 133 133 134 134 135 135 136 136 136 136 135 136 136 137 137 137 137 137 137 136 135 136 137 138 139 142 147 152 156 159 159 159 158 156 155 156 159 160 160 159 157 156 155 153 144 112 89 86 89 89 87 84 84 82 75 65 59 65 105 117 103 78 57
145 142 139 135 133 132 132 133 133 134 135 136 136 136 136 135 135 136 137 138 138 139 140 140 139 138 138 139 140 140 141 144 150 156 160 161 159 157 156 156 155 157 159 160 159 157 155 151 143 125 101 83 78 80 83 85 86 87 90 89 83 74 70 74 87 91 85 67 47
139 137 134 132 131 130 131 132 133 134 135 136 136 136 135 135 136 137 139 140 140 140 140 141 140 139 139 140 140 140 143 147 152 156 159 159 157 155 154 154 153 154 156 156 154 150 146 139 127 111 99 92 92 94 97 98 97 96 96 93 89 85 85 87 89 86 76 63 53
135 134 132 131 130 130 131 132 133 134 135 135 136 136 136 136 137 138 139 140 141 141 141 141 140 139 139 140 140 141 144 149 152 154 155 155 154 153 151 149 148 148 149 148 144 137 130 123 116 109 103 101 103 108 112 113 110 106 102 99 98 99 101 102 101 95 85 76 71
133 132 131 130 129 130 131 132 134 135 135 135 135 136 137 137 137 137 138 139 140 141 141 141 141 140 141 142 143 144 146 148 149 149 149 150 151 150 146 142 141 142 141 139 132 125 119 116 112 107 104 104 107 112 115 113 109 105 104 104 108 113 118 120 119 113 102 91 81
133 132 131 130 130 131 132 133 135 136 135 135 135 136 137 137 137 137 138 139 139 138 138 139 140 141 142 144 145 146 145 144 144 144 146 148 149 146 140 135 135 134 133 129 123 118 116 113 109 105 103 104 105 106 104 101 99 99 102 105 106 110 116 123 127 122 111 98 88
135 133 132 132 132 132 133 134 135 136 136 135 135 134 135 135 136 137 138 138 137 136 135 137 138 139 139 140 142 142 141 141 140 142 145 148 147 143 137 132 131 129 126 122 118 115 112 109 105 101 100 99 99 98 97 96 96 98 98 96 90 86 91 105 121 122 113 102 92
136 135 134 134 134 134 135 136 136 136 136 135 134 134 133 133 134 135 137 138 136 134 134 136 136 137 137 136 135 135 137 139 140 141 143 146 146 142 137 132 130 127 124 121 118 113 108 105 100 97 95 94 95 97 99 99 98 96 92 86 80 78 81 91 105 112 108 100 93
138 137 136 136 136 136 137 137 137 137 136 135 134 134 134 133 133 134 135 137 135 134 133 134 134 134 133 132 130 129 131 135 138 140 141 143 144 142 138 133 129 127 125 123 118 113 108 104 98 95 94 94 96 99 101 100 97 93 87 83 80 80 81 86 92 97 98 94 90
140 140 139 138 138 138 138 138 138 137 136 134 134 133 133 132 132 133 135 136 135 134 133 132 130 130 129 128 125 124 125 129 134 137 138 139 141 141 138 132 128 126 125 123 117 112 107 103 101 99 97 97 98 99 100 99 96 92 89 85 83 82 81 82 84 87 88 86 81
142 141 141 140 140 139 139 138 138 137 136 135 134 133 133 132 132 133 134 135 135 134 132 130 129 129 128 127 125 124 124 126 129 131 132 133 135 136 134 129 125 123 121 119 116 112 110 107 104 101 98 97 97 98 99 98 97 95 93 91 88 85 83 81 81 82 82 81 77
142 142 141 141 140 140 139 138 137 137 137 136 135 134 134 134 134 134 134 134 133 132 131 130 129 130 129 129 127 126 124 123 123 123 123 123 126 128 128 124 121 119 117 117 116 116 114 111 107 102 98 95 96 98 99 99 99 99 98 97 95 92 88 85 82 81 81 80 78